TimeEDT,TemperatureF,Dew PointF,Humidity,Sea Level PressureIn,VisibilityMPH,Wind Direction,Wind SpeedMPH,Gust SpeedMPH,PrecipitationIn,Events,Conditions,WindDirDegrees,DateUTC
12:56 AM,46.0,43.0,89,30.17,10.0,Calm,Calm,-,0.01,,Clear,0,2012-10-22 04:56:00
1:56 AM,45.0,43.0,93,30.17,10.0,Calm,Calm,-,N/A,,Clear,0,2012-10-22 05:56:00
2:56 AM,44.1,42.1,93,30.17,10.0,NW,3.5,-,N/A,,Clear,310,2012-10-22 06:56:00
3:56 AM,43.0,41.0,93,30.17,10.0,Calm,Calm,-,N/A,,Clear,0,2012-10-22 07:56:00
4:56 AM,43.0,39.9,89,30.18,10.0,WNW,3.5,-,N/A,,Clear,300,2012-10-22 08:56:00
5:56 AM,42.1,39.0,89,30.19,10.0,Calm,Calm,-,N/A,,Clear,0,2012-10-22 09:56:00
6:56 AM,42.1,39.9,92,30.21,10.0,Calm,Calm,-,N/A,,Clear,0,2012-10-22 10:56:00
7:56 AM,43.0,41.0,93,30.23,10.0,Calm,Calm,-,N/A,,Clear,0,2012-10-22 11:56:00
8:56 AM,51.1,46.0,83,30.24,10.0,Calm,Calm,-,N/A,,Clear,0,2012-10-22 12:56:00
10:56 AM,64.9,43.0,45,30.25,10.0,NNW,5.8,-,N/A,,Clear,330,2012-10-22 14:56:00
11:56 AM,68.0,42.1,39,30.24,10.0,Calm,Calm,-,N/A,,Clear,0,2012-10-22 15:56:00
12:56 PM,70.0,42.1,36,30.22,10.0,Variable,3.5,-,N/A,,Clear,0,2012-10-22 16:56:00
1:56 PM,71.1,41.0,34,30.19,10.0,North,4.6,-,N/A,,Clear,350,2012-10-22 17:56:00
2:56 PM,73.0,42.1,33,30.17,10.0,North,5.8,-,N/A,,Clear,350,2012-10-22 18:56:00
3:56 PM,73.0,42.1,33,30.16,10.0,Variable,3.5,-,N/A,,Clear,0,2012-10-22 19:56:00
4:56 PM,73.0,42.1,33,30.16,10.0,NNE,5.8,-,N/A,,Clear,20,2012-10-22 20:56:00
5:56 PM,70.0,44.1,39,30.17,10.0,North,4.6,-,N/A,,Clear,10,2012-10-22 21:56:00
6:56 PM,57.9,50.0,75,30.18,10.0,Calm,Calm,-,N/A,,Clear,0,2012-10-22 22:56:00
7:56 PM,55.0,50.0,83,30.19,10.0,Calm,Calm,-,N/A,,Clear,0,2012-10-22 23:56:00
8:56 PM,53.1,50.0,89,30.19,10.0,Calm,Calm,-,N/A,,Clear,0,2012-10-23 00:56:00
9:56 PM,52.0,48.9,89,30.19,10.0,Calm,Calm,-,N/A,,Clear,0,2012-10-23 01:56:00
10:56 PM,50.0,46.9,89,30.20,10.0,Calm,Calm,-,N/A,,Clear,0,2012-10-23 02:56:00
11:56 PM,50.0,46.9,89,30.21,10.0,Calm,Calm,-,N/A,,Clear,0,2012-10-23 03:56:00